STARLINK-32414, 61667

Orbit data source: Space-Track

STARLINK-32414, 61667 is a payload satellite owned by SpaceX/Seattle (US) in LEO that was launched on Sat, 26 Oct 2024 UTC via an FALCON 9 launch vehicle from the Air Force Eastern Test Range (AFETR). Payload-class satellites include a variety of spacecraft equipped with specific instruments for various scientific and technological missions. These include communications satellites like Starlink; space stations such as the ISS; scientific satellites like the Hubble; Earth observation satellites from companies like Planet Labs, Umbra, and HawkEye 360; GPS; miniature CubeSats for education and research; and military/defense satellites.

Loading next visibility...
Identifier
61667, 2024-193G
Orbit
LEO
Last TLE update
16 hours ago
Origin
Manufacturer
SpaceX/Seattle
Mission
Operational Commercial Communications
Bus & Motor
STARLINK V2M, Unknown motor
Mass
730 kg wet, ~700 kg dry
Launch date (UTC)
2024-10-26 (8 months ago)
Launch vehicle
FALCON 9
Launch site
Air Force Eastern Test Range (AFETR)
Object type
Payload
Rocket body
Debris
Shape & HBR
Box + 2 Pan, 29 m
Radar Cross Section
36.964 m², Large (>1 m²)

Expand to show TLE details & history

TLE from 16 hours ago
0 STARLINK-32414
1 61667U 24193G   25181.70434030 -.00000467  00000-0 -36620-5 0  9994
2 61667  53.1590 181.6636 0001145  91.3334 268.7798 15.30190675 37943
Epoch: 2025-06-30T16:54Z
TLE epoch observation values (Epoch: 2025-06-30T16:54:15.001Z)
Latitude
-0.00004°
Longitude
9.09074°
Altitude
476.159 km
Speed
7.629 km/s
True Right ascension
12h 06m 39s
True Declination
0° 00' 00"
Sunlit
Object was in daylight at epoch
Visualization orbit readout
Latitude
-6.6312°
Longitude
-169.13335°
Altitude
477.306 km
Speed
7.628 km/s
Apparent Right ascension
03h 17m 14s
Apparent Declination
-43° 48' 46"
Sunlit
Object is in daylight
Visualization observer readout
Local Sidereal Time
21:02:11
Azimuth
124.807° SE
Elevation
-28.724°
Doppler factor
1
Orbital elements
Apogee altitude
476.284 km
Perigee altitude
474.715 km
Semi-major axis
6,853.637 km
Eccentricity
0.00011
Inclination
53.159°
RAAN
181.6636°
Arg. of periapsis
91.3334°
True anomaly
Unknown
Mean anomaly
268.7798°
Eccentric anomaly
Unknown
Mean motion
3.82527 °/min
Orbital period
94.11 mins
BSTAR
-0.000003662
Loading maneuver chart data...
Loading SW <> Apogee altitude chart data...
Loading historical data...
Loading historical data...
Loading historical data...
Loading historical data...
Loading historical data...
Loading historical data...
Loading historical data...

STARLINK-32414 Visibility forecast

Observer location: undefined°, undefined°

Span
Click to sort rows by Start time (UTC) header in descending order
Start Az.
Max El. time (UTC)
Max El. Az.
Max El.
End time (UTC)
End Az.
5 mins2025-07-01 10:41:54.306Z275.253° WNW2025-07-01 10:43:54.306Z237.541° WSW19.818°2025-07-01 10:46:54.306Z180.951° SSW
5 mins2025-07-02 01:59:54.306Z196.495° SSW2025-07-02 02:01:54.306Z141.788° SSE33.989°2025-07-02 02:04:54.306Z65.886° ENE
4 mins2025-07-02 03:38:54.306Z299.73° NW2025-07-02 03:39:54.306Z326.505° NNW24.295°2025-07-02 03:42:54.306Z28.34° NE
5 mins2025-07-02 08:34:54.306Z334.042° NNW2025-07-02 08:36:54.306Z29.686° NE32.225°2025-07-02 08:39:54.306Z100.566° ESE
|